FENGYUN 1C DEB, 36274

Orbit data source: Space-Track

FENGYUN 1C DEB, 36274 is space debris in SSO originally from a launch on Mon, 10 May 1999 UTC launched from the Taiyaun Space Center, China (TSC). Fengyun 1C debris stems from the Chinese weather satellite Fengyun-1C, which was intentionally destroyed by a Chinese anti-satellite missile in 2007. This event dramatically increased the amount of space debris, with thousands of trackable fragments posing hazards to satellites and human spaceflight. The Fengyun 1C debris cloud has become a focal point in discussions about space sustainability and the need for international regulations to prevent the creation of new debris.

Loading next visibility...
Identifier
36274, 1999-025DXB
Orbit
SSO
Country
Flag of CNCN / PRC
Related business
Manufacturer
Unknown
Mission
Spacecraft
Bus & Motor
Unknown
Mass
Unknown
Launch date (UTC)
1999-05-10 (27 years ago)
Launch vehicle
Unknown
Launch site
Taiyaun Space Center, China (TSC)
Object type
Payload
Rocket body
Debris
Shape & HBR
Unknown shape, 0.1 m
Radar Cross Section
Small (<0.1 m²)

Expand to show TLE details & history
Last TLE update: 10 hours ago

TLE from 10 hours ago
0 FENGYUN 1C DEB
1 36274U 99025DXB 26167.01072457  .00004214  00000-0  17601-2 0  9993
2 36274  99.1347 253.5881 0059255  64.2302 114.7085 14.25767859656234
Epoch: 2026-06-16T00:15Z
TLE epoch observation values (Epoch: 2026-06-16T00:15:26.602Z)
Latitude
0.3266°
Longitude
165.4906°
Altitude
826.784 km
Speed
7.43 km/s
True Right ascension
04h 54m 33s
True Declination
0° 19' 29"
Sunlit
Object was in daylight at epoch
Visualization orbit readout
Latitude
Unknown
Longitude
Unknown
Altitude
Unknown
Speed
Unknown
Apparent Right ascension
Unknown
Apparent Declination
Unknown
Sunlit
N/A
Visualization observer readout
Local Sidereal Time
21:04:38
Azimuth
Unknown
Elevation
Unknown
Doppler factor
Unknown
Orbital elements
Apogee altitude
845.636 km
Perigee altitude
760.531 km
Semi-major axis
7,181.221 km
Eccentricity
0.00593
Inclination
99.1347°
RAAN
253.5881°
Arg. of periapsis
64.2302°
True anomaly
115.32343°
Mean anomaly
114.7085°
Eccentric anomaly
115.01616°
Mean motion
3.56653 °/min
Orbital period
100.94 mins
BSTAR
0.0017601
Loading maneuver chart data...
Computing Atmospheric mass density...

Documentation

Showing up to 5 results
|